TimeEST,TemperatureF,Dew PointF,Humidity,Sea Level PressureIn,VisibilityMPH,Wind Direction,Wind SpeedMPH,Gust SpeedMPH,PrecipitationIn,Events,Conditions,WindDirDegrees,DateUTC
12:53 AM,28.9,23.0,78,30.18,9.0,Calm,Calm,-,N/A,,Overcast,0,2013-02-25 05:53:00
1:53 AM,26.1,21.0,81,30.18,8.0,Calm,Calm,-,N/A,,Scattered Clouds,0,2013-02-25 06:53:00
2:53 AM,24.1,21.0,88,30.18,6.0,Calm,Calm,-,N/A,,Clear,0,2013-02-25 07:53:00
3:53 AM,21.0,17.1,85,30.17,5.0,Calm,Calm,-,N/A,,Clear,0,2013-02-25 08:53:00
4:53 AM,21.0,18.0,88,30.18,5.0,Calm,Calm,-,N/A,,Clear,0,2013-02-25 09:53:00
5:53 AM,21.0,17.1,85,30.22,5.0,Calm,Calm,-,N/A,,Clear,0,2013-02-25 10:53:00
6:53 AM,19.9,16.0,85,30.22,6.0,Calm,Calm,-,N/A,,Clear,0,2013-02-25 11:53:00
7:53 AM,21.9,19.0,89,30.23,4.0,Calm,Calm,-,N/A,,Clear,0,2013-02-25 12:53:00
8:53 AM,28.0,23.0,81,30.23,5.0,Calm,Calm,-,N/A,,Haze,0,2013-02-25 13:53:00
9:53 AM,34.0,24.1,67,30.22,6.0,Calm,Calm,-,N/A,,Haze,0,2013-02-25 14:53:00
10:53 AM,37.9,24.1,57,30.21,10.0,Variable,6.9,-,N/A,,Scattered Clouds,0,2013-02-25 15:53:00
11:53 AM,39.0,21.9,50,30.21,10.0,ESE,8.1,-,N/A,,Clear,120,2013-02-25 16:53:00
12:53 PM,41.0,21.0,45,30.16,10.0,Variable,4.6,17.3,N/A,,Clear,0,2013-02-25 17:53:00
1:53 PM,42.1,26.1,53,30.14,10.0,East,12.7,-,N/A,,Clear,80,2013-02-25 18:53:00
2:53 PM,43.0,26.1,51,30.10,10.0,East,8.1,-,N/A,,Clear,80,2013-02-25 19:53:00
3:53 PM,44.1,25.0,47,30.09,10.0,ENE,9.2,19.6,N/A,,Clear,70,2013-02-25 20:53:00
4:53 PM,44.1,26.1,49,30.08,10.0,ENE,8.1,-,N/A,,Clear,70,2013-02-25 21:53:00
5:53 PM,42.1,24.1,49,30.08,10.0,East,11.5,-,N/A,,Clear,80,2013-02-25 22:53:00
6:53 PM,36.0,25.0,64,30.09,10.0,East,5.8,-,N/A,,Clear,80,2013-02-25 23:53:00
7:53 PM,35.1,25.0,67,30.09,10.0,ENE,5.8,-,N/A,,Clear,70,2013-02-26 00:53:00
8:53 PM,37.0,23.0,57,30.04,10.0,East,10.4,-,N/A,,Clear,80,2013-02-26 01:53:00
9:53 PM,36.0,23.0,59,30.05,10.0,East,8.1,-,N/A,,Clear,90,2013-02-26 02:53:00
10:53 PM,35.1,23.0,61,30.02,10.0,East,6.9,-,N/A,,Clear,90,2013-02-26 03:53:00
11:53 PM,33.1,21.0,61,30.01,10.0,ESE,4.6,-,N/A,,Clear,110,2013-02-26 04:53:00